Home   Weather   Leimen   Past weeks

Flag for Germany Past Weather in Leimen, Baden-Württemberg, Germany — Yesterday and Last 2 Weeks

Now
52 °F

Clear.


Feels Like: 49 °F
Forecast: 40 / 58 °F
Wind: 8 mph from West

Location: Mannheim City

Current Time: Apr 28, 2017 at 11:59:57 pm

Latest Report: Apr 28, 2017 at 9:20 pm


Visibility: 10 mi

Pressure: 30.01 "Hg

Humidity: 50%

Dew Point: 34 °F

Location of LeimenLocation

Past Weather in Leimen — Graph

°F

Leimen Temperature Yesterday

Maximum temperature yesterday: 54 °F (at 3:50 pm)
Minimum temperature yesterday: 43 °F (at 7:20 am)
Average temperature yesterday: 49 °F

High & Low Weather Summary for the Past Weeks

 TemperatureHumidityPressure
High63 °F (Apr 24, 6:50 pm)100% (Apr 24, 5:20 am)30.60 "Hg (Apr 24, 5:20 am)
Low28 °F (Apr 20, 5:50 am)28% (Apr 21, 12:50 pm)29.71 "Hg (Apr 25, 5:50 am)
Average49 °F50%30.14 "Hg
* Reported Apr 19 9:20 am — Apr 28 9:20 pm, Leimen, Weather by CustomWeather, © 2017

Note: Actual official high and low records may vary slightly from our data, if they occured in-between our weather recording intervals... More about our weather records

Advertising

Leimen Weather History for the Previous 24 Hours

Scroll right to see more
 ConditionsComfort  
Time TempWeatherWind HumidityBarometerVisibility
9:20 pm
Fri, Apr 28
52 °FClear.8 mph50%30.01 "Hg10 mi
8:50 pm52 °FClear.9 mph47%30.01 "Hg10 mi
8:20 pm52 °FPassing clouds.8 mph44%29.98 "HgN/A
7:50 pm54 °FSunny.10 mph38%29.98 "Hg10 mi
7:20 pm54 °FSunny.9 mph41%29.98 "Hg10 mi
6:50 pm54 °FPassing clouds.10 mph38%29.98 "HgN/A
6:20 pm57 °FPassing clouds.12 mph33%29.95 "HgN/A
5:50 pm55 °FSunny.12 mph33%29.95 "Hg10 mi
5:20 pm55 °FSunny.3 mph33%29.95 "Hg10 mi
4:50 pm54 °FPassing clouds.9 mph35%29.95 "HgN/A
4:20 pm55 °FPassing clouds.13 mph36%29.95 "HgN/A
3:50 pm55 °FSunny.9 mph31%29.95 "Hg10 mi
3:20 pm54 °FPassing clouds.8 mph33%29.95 "HgN/A
2:50 pm54 °FPassing clouds.10 mph35%29.95 "HgN/A
2:20 pm54 °FSunny.13 mph35%29.95 "Hg10 mi
1:50 pm54 °FPassing clouds.9 mph35%29.92 "HgN/A
1:20 pm57 °FSunny.7 mph31%29.92 "Hg10 mi
12:50 pm54 °FPassing clouds.6 mph33%29.92 "HgN/A
12:20 pm55 °FSunny.9 mph31%29.95 "Hg10 mi
11:50 am54 °FPassing clouds.9 mph35%29.95 "HgN/A
11:20 am52 °FPassing clouds.7 mph44%29.95 "HgN/A
10:50 am50 °FPassing clouds.6 mph50%29.95 "HgN/A
10:20 am48 °FSunny.5 mph50%29.95 "Hg10 mi
9:20 am46 °FPassing clouds.8 mph53%29.95 "HgN/A
8:50 am45 °FPassing clouds.8 mph61%29.95 "HgN/A
8:20 am43 °FSunny.8 mph66%29.95 "Hg10 mi
7:50 am43 °FSunny.7 mph66%29.95 "Hg10 mi
7:20 am41 °FSunny.7 mph66%29.95 "Hg10 mi
6:50 am39 °FSunny.5 mph70%29.95 "Hg10 mi
6:20 am39 °FSunny.7 mph70%29.92 "Hg10 mi
5:50 am41 °FClear.7 mph61%29.92 "Hg10 mi
5:20 am41 °FClear.8 mph61%29.92 "Hg10 mi
Weather by CustomWeather, © 2017

See weather overviewHow to use our weather pages